Wetbulb
42.56 42.69 42.53 42.58 42.05 41.58 41.65 41.68 41.63 41.69 41.83 41.78 41.72 41.77 41.80 41.77 41.86 42.49 40.00 43.36 36.05 31.44 33.10 34.50 33.93 30.18 30.30 28.63 23.39 28.37 27.06 28.73 26.53 21.59 20.22 20.90 20.14 24.38 24.06 26.51 25.41 24.81 22.15 23.83 26.61 23.21 20.83 40.21 40.48 34.24 37.07 41.56 40.92 43.28
42.28 42.44 42.43 42.29 41.93 41.48 41.52 41.47 41.65 41.87 41.77 41.64 41.47 41.67 41.60 41.73 41.58 42.12 36.66 42.53 41.92 33.19 33.11 38.25 37.32 37.77 36.03 34.88 31.24 30.44 27.59 27.59 28.79 23.97 24.16 24.03 20.75 23.28 22.43 18.52 29.36 22.31 27.69 26.43 24.30 27.77 39.07 36.27 39.03 39.98 41.72 38.76 38.23 39.03
41.75 42.10 42.30 41.88 41.87 41.46 41.44 41.53 41.63 41.62 41.61 41.32 41.24 41.40 41.44 41.35 41.53 41.32 40.93 41.65 37.76 32.66 31.87 34.28 32.29 37.31 39.29 38.30 38.91 28.80 29.99 31.64 29.95 32.65 28.20 25.23 19.69 23.68 17.13 20.10 23.46 27.82 31.14 26.82 26.63 31.30 33.68 35.88 37.73 38.15 38.19 38.92 38.67 38.25
41.84 42.07 41.84 41.83 41.79 41.79 41.57 41.52 41.62 41.24 41.19 41.16 41.24 41.16 40.88 40.82 40.94 41.12 38.38 40.26 38.22 33.93 27.42 30.39 38.77 35.13 39.18 38.34 37.20 36.68 34.15 34.82 33.36 32.39 27.65 25.72 22.42 27.61 22.38 23.55 23.71 26.65 28.47 26.37 26.62 30.03 32.28 33.79 35.40 36.50 38.04 38.42 36.35 37.27
41.87 41.95 41.78 41.50 41.73 41.32 41.50 41.30 41.24 41.12 41.10 40.74 40.61 40.19 40.00 40.10 40.02 40.21 38.67 39.73 39.63 32.52 27.65 29.36 34.71 36.29 37.56 36.91 35.16 35.62 33.82 31.67 31.87 28.38 25.79 24.27 27.37 25.33 26.54 25.35 23.68 28.31 26.40 24.07 24.78 30.70 30.67 31.40 34.65 35.67 34.60 34.65 35.53 35.19
41.93 41.76 41.87 41.22 40.61 40.84 40.81 40.16 40.54 40.07 39.74 39.75 39.43 39.58 39.25 38.91 39.14 36.99 31.69 37.66 38.67 39.17 29.61 23.86 34.25 33.13 34.85 34.54 33.65 32.76 33.76 32.55 32.13 29.29 27.53 29.61 30.52 27.70 21.51 20.68 27.21 29.67 30.78 31.33 29.36 32.44 32.43 33.66 34.12 35.02 33.92 34.26 35.04 35.60
41.33 41.07 40.90 40.08 39.32 39.13 38.84 38.62 38.22 37.83 37.61 37.77 38.01 38.17 38.04 37.84 39.27 32.51 30.59 36.03 37.21 38.66 29.44 23.46 24.07 31.64 34.14 34.10 32.70 31.61 32.90 31.93 31.50 29.51 27.67 28.17 28.50 28.83 24.03 19.21 26.88 29.63 30.76 31.43 33.05 32.35 31.11 32.61 31.90 34.18 34.49 35.29 35.95 35.83
39.43 38.84 38.58 38.18 37.97 37.76 37.47 36.99 36.71 36.55 36.46 36.35 36.66 36.83 36.94 37.07 36.76 34.00 37.45 38.36 38.46 32.80 31.17 21.33 21.82 26.03 32.26 27.48 26.59 31.97 29.76 31.25 29.88 28.39 29.50 26.99 28.74 27.46 19.29 25.72 28.19 29.72 30.65 31.61 32.71 32.84 33.56 33.99 33.93 33.69 34.71 34.60 33.64 33.42
37.98 37.48 37.15 36.38 36.31 36.12 35.82 35.82 35.60 35.83 35.77 36.11 36.00 36.10 36.73 34.33 31.69 32.93 37.27 37.74 39.38 32.58 23.42 23.56 19.54 18.79 31.24 28.78 29.37 29.63 30.24 23.87 29.46 25.33 26.46 26.16 24.93 20.87 24.44 26.40 27.71 29.43 29.98 31.34 32.27 32.45 33.39 33.13 33.66 33.52 33.15 33.15 32.69 33.65
36.48 35.98 36.16 35.54 35.17 35.18 35.16 34.99 35.16 35.12 35.52 35.71 35.48 30.89 26.39 32.97 35.97 34.56 32.37 27.90 28.84 29.70 28.17 22.09 26.57 21.90 27.46 26.22 25.57 24.59 26.22 21.67 18.66 24.02 28.26 23.59 22.32 27.54 29.42 30.29 32.45 32.50 32.47 32.87 30.77 30.67 32.31 31.74 32.82 33.76 33.56 34.29 34.39 35.05
35.66 35.25 34.97 34.65 34.74 34.45 34.50 34.38 34.57 34.65 34.46 33.03 28.62 26.66 34.14 33.92 32.52 28.23 22.66 21.90 23.41 20.06 24.94 25.22 25.25 22.52 29.80 21.85 21.99 25.76 21.14 21.93 16.35 20.59 21.22 19.60 18.54 24.78 29.34 29.96 31.68 32.81 33.25 34.74 35.79 35.04 34.93 34.51 34.60 33.91 34.18 34.77 35.47 35.13
34.89 34.58 34.42 34.33 34.09 34.03 34.12 34.12 34.01 34.77 33.35 31.67 31.51 33.05 32.54 27.73 24.19 18.89 17.83 20.68 19.40 17.46 23.45 22.37 24.17 26.03 26.82 29.44 23.31 24.24 19.24 20.74 13.54 25.13 19.40 15.06 21.89 27.11 28.89 29.75 30.88 31.42 31.42 31.69 33.16 33.85 36.69 35.94 35.77 35.68 35.44 35.35 35.22 35.92
33.97 33.78 33.86 33.81 33.52 33.78 33.78 33.87 33.68 33.55 33.91 33.05 28.06 24.38 23.06 22.18 14.45 13.13 10.42 14.79 16.14 22.26 24.14 24.28 21.48 25.48 27.23 27.92 23.33 21.96 16.59 15.74 24.24 17.34 14.71 18.85 25.02 28.62 29.76 30.10 31.52 32.96 32.69 32.93 33.44 34.19 34.60 37.41 36.89 36.48 35.62 35.91 36.10 36.28
33.20 33.16 33.24 33.16 33.24 33.17 33.51 33.52 33.30 33.63 30.89 24.00 19.96 13.96 16.04 14.15 16.32 17.96 17.57 18.91 23.64 24.62 24.23 24.52 22.58 22.79 25.12 21.87 21.69 16.10 20.11 20.45 13.41 10.62 13.26 23.04 26.65 29.00 30.00 30.48 28.83 27.46 29.01 31.92 31.68 35.23 35.76 37.17 36.44 36.22 35.46 36.85 35.21 35.17
32.88 32.84 32.98 32.82 33.44 33.36 33.45 33.11 33.06 34.47 27.79 20.77 20.49 12.33 15.22 21.13 22.68 23.26 24.21 24.16 25.43 26.83 24.81 23.02 23.26 23.17 21.43 18.36 20.50 19.06 14.42 11.93 16.08 16.26 23.50 28.79 29.90 29.21 28.14 28.42 28.19 29.58 31.02 31.29 33.88 36.68 39.53 37.92 36.18 35.58 36.38 37.18 36.76 37.35
32.58 32.57 32.37 33.39 33.27 33.05 33.09 33.23 33.13 32.18 26.57 21.96 20.37 17.01 20.50 19.45 19.86 21.85 22.35 22.47 27.16 25.72 25.95 23.94 19.16 17.00 16.37 18.01 15.27 13.94 13.61 12.29 18.88 25.19 28.41 30.15 29.83 28.46 27.51 28.16 31.58 30.87 31.68 32.61 33.52 38.14 40.80 38.07 36.32 36.49 36.93 37.25 36.94 37.39
32.09 30.58 32.61 32.81 32.77 32.73 32.84 32.28 30.56 24.19 21.97 19.00 18.43 23.13 21.48 20.39 19.19 21.54 23.86 23.70 27.58 23.56 17.64 19.91 14.26 14.07 20.65 15.28 14.22 18.84 16.60 22.05 25.59 28.48 30.11 30.06 28.15 28.48 29.24 31.03 31.03 30.61 32.95 32.41 36.04 39.22 40.30 39.93 37.58 36.50 34.84 36.24 37.05 37.41
30.93 33.12 33.07 32.72 32.84 31.79 31.20 31.83 24.92 21.52 16.63 20.06 17.81 20.18 22.42 22.94 21.80 23.09 25.18 27.28 24.79 22.96 22.07 17.91 21.73 15.28 13.60 11.80 14.82 21.20 24.96 27.30 28.69 28.84 29.74 29.48 30.66 31.81 30.79 30.06 32.11 31.93 32.63 33.30 37.49 39.91 39.29 38.34 36.71 36.96 36.56 37.68 37.87 37.71
32.77 33.50 32.75 32.63 32.37 29.19 24.42 24.86 26.01 16.90 19.02 21.52 22.09 22.35 23.67 23.64 25.24 26.42 25.73 26.64 27.52 27.96 24.40 21.53 16.95 14.71 16.70 21.82 22.40 24.84 26.52 27.25 27.17 27.73 29.33 30.68 31.36 30.72 31.20 31.63 32.05 31.87 32.54 33.30 37.42 39.15 39.05 39.03 38.51 38.75 38.67 39.10 38.96 39.91
33.81 33.82 32.96 32.45 31.69 26.17 21.22 22.40 27.86 20.62 17.48 20.90 23.64 21.88 22.64 23.02 25.16 25.69 25.68 26.52 25.29 24.19 20.28 18.19 18.58 20.96 22.90 25.79 28.37 28.09 28.48 29.78 29.03 26.72 27.21 29.61 31.39 31.22 31.23 31.14 30.73 31.41 34.26 40.00 39.39 37.50 39.22 38.94 39.82 39.83 40.19 39.99 40.45 40.88
32.48 32.87 32.72 32.66 29.91 27.72 23.99 22.43 21.41 22.32 22.27 20.56 23.20 22.41 20.53 23.91 22.84 22.91 23.30 26.69 23.01 21.48 19.23 22.96 24.23 27.53 29.32 30.42 31.36 31.00 30.56 30.44 28.35 28.17 27.43 27.60 31.06 32.27 31.46 31.23 32.84 33.22 38.17 40.19 39.60 38.41 38.04 41.53 42.66 43.85 42.67 44.36 44.19 44.61
32.56 31.53 31.26 30.33 24.88 24.68 22.99 25.95 22.59 24.75 21.93 22.12 22.10 23.71 20.51 20.11 21.17 22.46 25.54 22.60 21.66 23.10 25.17 26.26 27.66 29.06 29.25 28.54 29.22 29.77 29.52 29.35 29.10 28.30 28.17 27.94 27.02 29.67 30.34 31.37 31.15 34.06 35.99 39.49 39.97 40.02 38.98 40.17 42.90 43.56 43.58 41.80 39.84 39.44
31.08 30.11 28.30 26.08 20.27 19.81 18.74 27.30 19.75 21.42 16.90 19.15 22.42 19.32 19.80 20.05 23.13 27.22 20.98 23.81 24.75 28.47 28.88 28.75 28.72 28.84 27.32 28.01 28.67 29.34 29.20 28.24 28.30 29.27 29.09 29.02 30.51 30.60 32.86 33.35 35.43 33.38 34.80 38.18 40.71 40.79 40.50 35.73 35.47 37.32 38.00 37.89 36.95 35.55
29.83 25.05 19.90 19.05 19.65 15.92 22.34 18.72 22.47 20.56 20.90 19.01 17.77 15.26 17.97 20.44 24.49 21.22 18.42 22.01 26.09 28.13 27.41 26.56 26.88 25.20 25.74 26.15 26.67 27.89 29.03 29.13 27.79 26.83 27.76 31.43 33.20 33.99 35.66 36.01 35.82 35.10 35.13 36.26 37.26 37.93 37.53 36.24 34.29 34.68 34.11 34.11 33.75 33.01
18.40 17.15 19.04 14.78 20.65 16.71 14.88 15.60 17.04 17.74 14.47 17.01 15.59 15.78 18.20 22.48 17.99 17.39 18.15 22.63 25.21 24.85 25.11 25.29 24.20 23.88 23.17 24.31 25.32 26.74 27.78 26.88 25.10 25.97 28.90 30.17 34.18 34.17 35.39 36.74 36.58 35.43 35.78 34.78 34.33 34.46 34.11 33.93 33.20 32.48 33.20 33.38 33.20 32.66
12.31 18.07 16.06 17.43 17.84 15.81 16.89 12.62 14.25 15.02 16.78 14.91 16.01 20.24 21.19 18.21 14.89 14.64 20.38 23.00 23.79 23.88 23.07 22.82 22.53 22.20 21.39 22.84 22.56 23.45 24.47 25.98 25.53 25.89 28.58 32.87 33.56 32.86 31.77 31.89 33.68 34.10 35.63 35.84 34.47 33.56 33.77 33.75 32.66 32.30 32.30 32.45 32.22 32.58
12.57 14.88 20.01 23.88 21.64 21.10 18.59 20.34 21.13 18.24 14.34 13.15 16.85 16.80 16.42 11.28 13.15 19.99 25.62 25.70 22.18 22.54 22.67 22.88 20.88 19.73 19.09 21.38 22.69 23.13 24.81 26.06 26.11 27.42 30.27 32.47 32.29 32.45 32.63 32.03 32.98 33.80 35.66 36.09 35.20 34.29 33.56 32.84 32.48 32.11 31.93 32.11 32.11 32.39
18.34 19.17 14.28 18.54 18.90 20.88 15.85 16.25 15.56 14.06 16.64 20.53 19.32 14.10 12.53 13.54 15.21 23.51 23.99 23.35 22.00 21.37 20.81 20.12 21.12 21.67 21.87 22.85 24.42 25.21 26.34 28.20 29.65 32.01 32.96 32.60 32.64 32.28 32.48 32.90 33.43 32.18 34.03 34.29 34.11 34.11 33.93 33.20 32.66 31.93 31.87 31.41 31.20 31.87
18.26 22.17 20.74 15.12 16.15 17.99 17.75 16.88 17.44 20.71 23.10 21.18 16.93 15.74 17.95 22.58 24.02 23.72 22.70 21.66 21.14 18.55 17.29 17.78 18.54 20.47 21.20 24.05 27.82 31.29 30.21 32.03 30.97 31.37 30.21 29.09 29.98 30.61 32.42 32.61 32.95 33.16 33.19 32.63 31.67 33.14 33.49 33.32 32.96 32.15 31.86 31.60 31.68 31.84
17.81 22.79 18.22 16.04 13.28 14.34 20.21 23.44 21.98 24.50 24.99 24.18 22.53 20.97 21.13 22.02 24.00 25.31 22.52 20.36 16.75 16.01 16.94 17.34 18.56 18.67 18.12 20.33 22.09 26.89 32.30 32.30 32.30 31.93 30.65 29.00 30.29 31.71 32.46 32.48 32.48 32.66 33.02 32.64 32.10 31.89 31.54 32.36 32.08 32.17 31.57 31.40 31.33 31.09
21.74 21.56 18.22 18.50 17.09 21.36 24.08 26.07 26.25 24.97 23.58 22.73 22.48 18.25 17.25 18.44 20.90 24.94 21.56 19.20 17.62 16.36 16.53 14.67 14.87 15.70 15.80 16.63 20.13 19.72 29.61 31.48 31.93 32.11 32.19 32.19 32.10 32.30 32.48 32.66 32.84 33.02 33.20 33.20 33.02 32.54 32.22 31.89 31.76 31.32 31.04 30.77 30.72 31.10
21.07 17.45 17.04 13.33 17.23 23.26 24.70 22.60 22.04 21.76 22.31 20.82 19.74 18.50 17.98 16.89 14.35 19.96 20.71 17.97 15.15 13.34 13.44 13.65 11.54 12.47 15.37 17.52 20.51 30.14 29.77 31.03 30.75 32.05 32.08 32.40 32.48 32.66 32.84 33.13 33.38 33.56 33.56 33.20 32.82 32.61 32.46 32.21 32.00 31.79 31.35 30.99 30.81 30.55
18.85 19.11 18.61 17.73 17.53 17.56 20.94 18.72 19.32 18.98 19.55 17.25 16.70 15.76 15.55 13.45 10.90 17.18 20.12 19.44 16.03 14.16 13.18 13.66 15.40 16.02 18.03 21.35 30.19 31.24 30.85 30.59 30.19 31.18 31.82 32.16 32.57 32.89 33.19 33.38 33.38 33.01 32.60 32.42 32.22 32.10 31.47 30.89 30.03 29.19 28.48 27.79 27.24 26.84
MSLP
1030.14 1029.86 1029.66 1029.42 1029.22 1029.06 1028.78 1028.49 1028.27 1027.99 1027.77 1027.56 1027.50 1027.31 1027.18 1027.09 1027.04 1027.07 1026.54 1026.58 1026.82 1025.59 1024.27 1023.77 1023.35 1023.17 1023.09 1022.84 1022.27 1021.92 1021.68 1021.17 1020.99 1020.63 1020.16 1019.45 1018.01 1016.33 1014.67 1013.61 1012.62 1011.49 1011.31 1010.34 1009.77 1008.57 1006.37 1004.67 1003.60 1003.69 1005.61 1004.97 1004.56 1003.66
1029.28 1029.01 1028.71 1028.50 1028.31 1028.10 1027.87 1027.62 1027.32 1027.13 1026.97 1026.76 1026.59 1026.58 1026.39 1026.26 1026.22 1026.26 1025.83 1025.50 1025.57 1025.09 1023.50 1022.44 1022.46 1022.23 1022.03 1021.97 1022.10 1021.95 1021.53 1021.15 1020.83 1020.25 1019.97 1019.28 1018.35 1017.23 1015.94 1014.04 1013.31 1012.30 1011.67 1011.19 1011.40 1008.64 1005.89 1007.62 1007.30 1007.08 1006.78 1006.81 1006.50 1005.66
1028.25 1027.99 1027.74 1027.50 1027.29 1027.08 1026.84 1026.62 1026.40 1026.21 1026.03 1025.84 1025.72 1025.69 1025.55 1025.38 1025.26 1025.28 1024.80 1024.58 1024.65 1023.79 1022.62 1021.97 1020.85 1020.76 1020.80 1020.99 1021.17 1020.94 1020.50 1020.36 1020.03 1020.09 1020.03 1019.64 1018.79 1018.47 1016.85 1015.28 1014.40 1013.08 1012.51 1011.72 1011.24 1008.32 1007.99 1008.17 1008.64 1008.38 1008.16 1007.57 1007.22 1006.87
1027.19 1026.94 1026.71 1026.46 1026.24 1026.02 1025.80 1025.58 1025.39 1025.23 1025.02 1024.85 1024.77 1024.71 1024.58 1024.37 1024.21 1024.10 1023.85 1023.64 1023.51 1022.74 1020.93 1019.07 1018.89 1018.95 1019.11 1019.33 1019.46 1019.41 1019.18 1019.71 1019.75 1019.86 1019.30 1018.45 1017.75 1017.57 1016.17 1015.39 1014.31 1013.78 1013.18 1011.67 1010.49 1008.63 1009.04 1008.40 1008.75 1008.46 1008.99 1008.28 1008.14 1007.94
1026.10 1025.85 1025.67 1025.43 1025.17 1024.93 1024.73 1024.52 1024.33 1024.14 1023.95 1023.84 1023.75 1023.68 1023.54 1023.52 1023.47 1023.22 1022.94 1022.43 1022.32 1021.85 1019.20 1018.01 1017.86 1018.21 1018.24 1018.13 1017.85 1017.78 1017.87 1018.63 1018.53 1018.50 1018.04 1016.95 1016.73 1016.65 1015.71 1015.03 1012.45 1013.35 1012.61 1011.98 1008.62 1008.94 1009.65 1008.29 1008.67 1009.03 1008.88 1008.76 1008.77 1008.54
1025.04 1024.80 1024.62 1024.35 1024.17 1024.01 1023.86 1023.71 1023.50 1023.20 1023.14 1023.03 1022.89 1022.71 1022.67 1022.64 1022.60 1022.45 1021.41 1020.23 1020.15 1019.54 1019.39 1017.79 1016.33 1016.21 1016.39 1016.50 1016.05 1016.11 1016.75 1016.78 1017.15 1016.95 1016.01 1015.68 1015.71 1015.28 1014.22 1012.40 1012.10 1012.22 1011.83 1011.23 1008.57 1010.01 1009.80 1008.73 1008.70 1009.12 1009.10 1008.88 1008.42 1007.94
1023.98 1023.84 1023.72 1023.59 1023.44 1023.30 1023.17 1023.08 1023.10 1022.89 1022.57 1022.24 1021.97 1021.76 1021.65 1021.59 1021.58 1021.31 1019.90 1020.06 1019.93 1019.84 1018.94 1017.19 1015.51 1014.98 1015.22 1014.43 1014.59 1015.01 1015.15 1015.28 1015.61 1015.15 1014.69 1014.61 1014.33 1014.17 1012.76 1010.42 1010.75 1010.68 1010.38 1009.70 1009.27 1009.38 1008.05 1007.84 1007.16 1007.95 1008.12 1008.11 1007.98 1007.59
1023.33 1023.23 1023.12 1022.95 1022.78 1022.61 1022.48 1022.29 1022.07 1021.89 1021.57 1021.37 1021.11 1020.81 1020.60 1020.44 1020.20 1019.53 1018.99 1019.23 1019.73 1019.84 1018.90 1016.60 1014.48 1014.47 1014.69 1014.41 1013.98 1014.00 1014.00 1014.15 1013.94 1013.51 1013.35 1012.93 1012.83 1012.49 1010.50 1006.96 1009.12 1009.11 1008.82 1008.16 1007.56 1008.33 1007.16 1006.86 1006.58 1006.59 1007.12 1007.21 1006.81 1006.53
1022.71 1022.56 1022.41 1022.18 1021.97 1021.91 1021.66 1021.51 1021.21 1020.93 1020.65 1020.48 1020.15 1019.79 1019.47 1018.99 1018.38 1017.51 1017.49 1017.65 1017.89 1018.43 1016.77 1015.17 1013.98 1012.91 1013.17 1012.63 1012.85 1013.15 1013.25 1012.71 1012.56 1011.65 1011.34 1012.17 1009.79 1007.81 1005.88 1007.56 1007.36 1007.23 1006.73 1005.86 1005.97 1006.45 1005.67 1004.99 1004.71 1005.02 1005.63 1005.98 1005.69 1005.13
1021.95 1021.73 1021.51 1021.51 1021.18 1021.04 1020.84 1020.52 1020.26 1020.06 1019.84 1019.53 1019.54 1019.29 1017.57 1017.11 1016.67 1017.31 1016.75 1016.65 1016.35 1016.12 1015.53 1013.66 1013.40 1011.97 1012.77 1012.12 1012.24 1012.64 1012.41 1011.92 1010.57 1009.65 1009.33 1008.69 1007.26 1006.17 1005.98 1005.90 1005.45 1005.03 1004.91 1004.83 1004.01 1003.48 1002.99 1002.82 1002.97 1002.80 1003.46 1004.07 1004.03 1003.87
1021.09 1021.00 1020.66 1020.52 1020.31 1020.11 1019.91 1019.63 1019.41 1019.25 1019.10 1018.99 1018.42 1017.59 1016.62 1017.10 1016.93 1016.39 1015.73 1015.07 1014.26 1013.70 1013.02 1012.44 1012.00 1011.17 1011.20 1011.21 1011.30 1011.62 1011.10 1010.66 1009.17 1008.45 1007.85 1007.03 1004.41 1003.03 1004.24 1004.10 1003.95 1003.85 1003.51 1002.66 1001.76 1000.95 1000.49 1000.57 1000.37 1000.62 1001.35 1002.14 1002.60 1002.64
1020.23 1020.06 1019.83 1019.60 1019.41 1019.14 1018.91 1018.73 1018.66 1018.62 1018.61 1018.25 1018.03 1017.75 1017.45 1016.92 1016.13 1015.40 1014.06 1013.48 1012.72 1011.75 1011.12 1010.68 1010.54 1010.51 1010.51 1010.28 1010.43 1010.27 1009.94 1009.37 1007.56 1007.10 1006.27 1004.68 1002.22 1002.57 1003.01 1002.57 1002.52 1002.43 1002.22 1001.14 1000.32 999.30 997.48 997.27 997.77 998.33 998.97 999.69 1000.25 1000.82
1019.47 1019.23 1018.91 1018.70 1018.55 1018.31 1018.16 1017.98 1017.94 1017.93 1017.80 1017.66 1017.54 1016.70 1016.02 1015.08 1014.40 1013.16 1012.47 1011.98 1011.33 1010.78 1010.65 1010.35 1010.34 1010.23 1009.98 1009.91 1010.02 1009.62 1008.64 1007.53 1006.96 1005.97 1004.74 1003.45 1001.60 1002.06 1001.74 1002.04 1001.99 1001.54 1000.81 999.61 997.51 996.51 995.77 994.20 994.64 995.70 996.22 997.49 998.91 999.61
1018.64 1018.36 1018.17 1018.00 1017.83 1017.79 1017.53 1017.32 1017.29 1017.28 1017.50 1016.95 1016.09 1015.13 1014.27 1013.11 1012.42 1011.53 1011.34 1010.93 1010.54 1010.41 1010.29 1010.13 1010.33 1010.06 1009.64 1009.52 1009.19 1008.55 1007.46 1006.72 1005.29 1004.21 1002.99 1001.19 1001.40 1001.29 1001.32 1000.58 999.97 998.93 998.07 996.61 995.45 993.15 991.23 991.89 991.67 992.81 994.16 995.60 996.74 997.46
1017.72 1017.63 1017.48 1017.31 1017.03 1016.86 1016.72 1016.71 1016.66 1016.86 1016.89 1016.01 1015.12 1013.67 1012.55 1011.92 1011.30 1010.81 1010.79 1010.40 1010.08 1010.03 1009.97 1010.37 1010.03 1009.82 1009.11 1009.03 1008.39 1007.43 1006.70 1004.72 1002.54 1001.21 1000.24 999.90 999.90 999.64 998.98 998.36 997.87 996.11 994.59 993.49 991.86 990.14 988.77 988.90 989.57 990.93 992.25 993.74 994.87 995.73
1017.03 1016.93 1016.49 1016.25 1016.07 1016.05 1015.98 1015.92 1016.02 1016.43 1016.03 1015.35 1014.31 1013.00 1012.03 1011.35 1010.93 1010.73 1010.41 1010.05 1009.71 1009.84 1010.10 1010.00 1009.93 1009.23 1008.33 1007.80 1007.02 1006.04 1004.95 1002.95 1001.92 1000.84 1000.10 999.92 999.12 998.63 997.98 997.13 995.41 994.27 992.74 991.40 989.98 987.82 986.25 986.46 987.56 988.97 990.54 991.45 992.65 993.70
1016.39 1016.10 1015.90 1015.84 1015.65 1015.53 1015.37 1015.31 1015.38 1015.02 1014.32 1013.50 1012.36 1011.82 1011.45 1011.10 1010.81 1010.31 1009.59 1009.25 1009.43 1009.42 1009.69 1009.59 1008.98 1008.06 1007.33 1006.30 1005.57 1005.04 1003.71 1002.83 1002.10 1000.80 1000.09 999.89 999.31 998.27 996.94 994.96 994.39 993.00 990.93 989.72 987.86 985.73 983.89 984.70 986.40 987.72 988.72 989.78 990.86 991.95
1015.40 1015.00 1015.01 1015.02 1014.98 1014.79 1014.62 1014.68 1014.59 1013.96 1013.06 1012.41 1011.51 1010.78 1010.38 1010.02 1009.75 1009.27 1008.74 1008.64 1008.58 1008.54 1008.62 1008.56 1008.50 1007.54 1006.64 1005.67 1004.66 1004.36 1003.56 1002.60 1001.82 1000.86 999.46 998.61 998.21 996.98 996.08 994.51 993.05 991.95 989.88 988.14 986.73 984.60 983.47 984.01 985.25 986.41 987.69 988.51 989.48 990.49
1014.65 1014.54 1014.44 1014.47 1014.62 1014.88 1014.42 1013.99 1013.90 1012.69 1011.65 1010.91 1010.31 1010.07 1009.26 1008.66 1008.42 1008.09 1007.88 1007.91 1007.91 1007.73 1007.95 1007.69 1006.78 1005.88 1005.27 1004.68 1003.85 1003.28 1002.48 1001.70 1000.46 999.41 998.24 997.33 997.47 996.63 995.28 994.02 992.56 991.10 989.41 987.20 985.36 984.38 983.87 984.05 984.75 985.68 986.72 987.48 987.85 988.77
1013.73 1013.76 1013.86 1013.85 1014.08 1014.29 1013.73 1013.13 1013.12 1011.99 1010.55 1009.70 1008.87 1008.39 1008.02 1007.39 1007.04 1006.83 1006.77 1006.61 1006.45 1006.51 1006.40 1006.13 1005.42 1005.04 1004.51 1003.80 1003.18 1002.40 1001.72 1001.25 1000.40 998.72 996.82 995.73 996.18 996.03 994.71 993.79 992.31 990.32 988.68 986.05 985.41 985.15 984.42 984.38 984.81 985.34 985.86 986.48 987.12 987.82
1012.49 1012.49 1012.80 1013.19 1013.44 1013.57 1012.94 1011.90 1011.36 1010.68 1009.88 1008.87 1008.10 1007.61 1007.35 1006.82 1006.07 1005.77 1005.26 1005.05 1005.11 1005.03 1004.64 1004.23 1003.90 1003.62 1003.14 1002.71 1002.36 1001.74 1001.01 1000.67 1000.09 999.79 998.60 996.69 994.88 995.40 994.22 992.75 991.71 990.42 988.27 986.19 985.06 984.91 984.89 984.33 984.29 984.67 985.35 986.04 986.71 987.48
1011.67 1011.99 1012.33 1012.72 1012.73 1012.45 1012.01 1010.96 1010.46 1009.86 1009.64 1008.27 1007.40 1006.49 1005.84 1005.11 1004.54 1004.07 1003.76 1003.68 1003.70 1003.45 1003.11 1002.66 1002.25 1001.85 1001.55 1001.36 1001.10 1001.08 1001.03 1000.73 1000.15 999.51 998.32 997.28 995.58 994.34 993.38 992.62 991.77 990.33 988.86 987.18 986.04 985.46 985.45 985.30 985.56 985.90 986.31 987.09 987.86 988.48
1011.87 1012.20 1012.21 1012.22 1012.26 1011.61 1010.71 1009.87 1009.58 1009.14 1008.46 1007.34 1006.38 1005.69 1005.07 1004.54 1004.02 1003.49 1002.95 1002.43 1002.09 1002.09 1002.15 1002.07 1002.11 1002.29 1002.13 1001.72 1001.19 1000.51 1000.44 999.89 998.72 998.07 997.12 995.96 994.35 993.47 992.58 991.89 991.33 990.51 989.39 987.84 986.89 986.53 986.40 986.58 987.13 987.51 987.60 987.93 988.51 989.18
1011.95 1011.88 1011.83 1011.45 1011.15 1010.57 1010.13 1009.53 1008.91 1008.26 1007.52 1006.92 1006.29 1005.52 1004.64 1004.06 1003.66 1003.20 1002.44 1001.98 1001.84 1002.32 1002.82 1003.07 1002.87 1002.31 1001.78 1001.17 1000.20 999.28 999.13 998.93 998.32 997.48 996.57 995.10 993.23 992.25 991.60 991.00 990.87 990.46 989.66 988.98 988.23 987.55 987.52 987.58 987.88 988.37 988.49 988.86 989.48 990.06
1011.78 1011.82 1011.55 1010.76 1010.37 1010.19 1009.72 1008.94 1008.28 1007.78 1007.38 1006.93 1006.11 1005.29 1004.38 1004.25 1003.55 1002.79 1002.14 1002.34 1002.83 1003.26 1003.35 1003.45 1003.48 1002.89 1001.77 1000.37 999.68 998.80 998.64 998.64 997.89 996.63 995.26 994.61 992.88 992.00 991.24 990.60 990.30 990.24 989.72 989.11 988.84 988.65 988.57 988.51 988.57 989.05 989.42 989.74 990.24 990.75
1011.01 1010.69 1010.65 1009.45 1009.29 1009.26 1008.57 1008.32 1007.94 1007.45 1006.91 1006.73 1006.17 1005.17 1004.66 1004.09 1003.35 1002.52 1002.37 1003.09 1003.37 1003.81 1004.10 1003.86 1003.22 1002.38 1001.39 1000.76 999.54 998.56 997.77 998.01 997.59 996.29 994.51 993.47 992.75 992.05 991.31 990.78 990.29 990.00 989.79 989.38 989.35 989.36 989.31 989.46 989.53 989.73 990.30 990.65 991.01 991.32
1010.19 1009.72 1009.61 1009.53 1009.10 1008.58 1008.26 1007.81 1007.45 1007.19 1006.99 1006.60 1005.89 1005.39 1004.99 1004.51 1003.47 1003.21 1003.45 1003.90 1004.65 1004.83 1004.86 1004.38 1003.84 1002.82 1001.49 1000.15 999.28 998.44 997.81 997.16 996.54 995.28 994.23 993.24 992.57 991.93 991.41 990.93 990.57 990.36 990.05 989.83 989.75 989.81 989.79 989.99 990.31 990.69 991.14 991.67 992.07 992.22
1009.79 1009.36 1009.22 1009.12 1008.95 1008.56 1008.30 1007.98 1007.44 1007.11 1006.62 1006.34 1006.09 1005.77 1005.47 1004.91 1004.46 1004.35 1004.70 1005.19 1005.47 1005.32 1004.78 1004.29 1003.43 1002.39 1001.22 999.97 998.71 997.51 996.57 995.68 994.81 993.97 993.03 992.76 992.48 991.89 991.37 991.00 990.84 990.72 990.59 990.44 990.45 990.57 990.69 990.77 990.95 991.45 991.82 992.40 992.90 993.30
1009.55 1009.12 1009.24 1009.11 1009.03 1008.36 1008.02 1007.51 1007.03 1006.55 1006.55 1006.77 1006.64 1006.25 1005.77 1005.27 1005.58 1005.63 1005.89 1006.14 1006.13 1005.65 1004.73 1003.67 1002.58 1002.00 1000.70 999.19 997.34 995.65 995.25 994.57 994.05 993.38 992.94 992.70 992.46 992.26 991.89 991.60 991.39 991.34 991.37 991.28 991.42 991.56 991.73 991.92 992.23 992.43 993.12 993.60 994.21 994.66
1009.43 1009.49 1009.02 1008.80 1008.70 1007.85 1007.22 1007.10 1006.94 1006.91 1007.02 1007.22 1007.54 1007.19 1006.66 1006.41 1006.50 1006.62 1006.66 1006.67 1006.43 1005.83 1005.24 1004.38 1003.31 1002.17 1000.72 999.34 997.78 996.19 995.05 994.45 993.90 993.61 993.50 993.44 993.36 993.12 992.79 992.62 992.47 992.41 992.40 992.54 992.72 992.96 993.23 993.48 993.83 994.09 994.54 995.06 995.53 996.11
1009.77 1009.45 1008.97 1008.49 1007.98 1007.47 1007.19 1007.36 1007.18 1007.14 1007.39 1007.45 1007.74 1007.73 1007.32 1007.18 1006.82 1006.77 1007.16 1007.32 1006.94 1006.26 1005.16 1004.03 1002.86 1002.16 1000.99 999.93 998.75 997.29 995.65 995.23 994.78 994.47 994.22 994.11 993.97 993.80 993.63 993.57 993.50 993.44 993.47 993.61 993.82 993.98 994.27 994.70 995.07 995.47 996.10 996.57 997.40 997.64
1009.62 1009.22 1009.14 1008.75 1008.00 1007.53 1007.66 1007.40 1007.02 1006.74 1006.94 1007.29 1007.54 1007.99 1007.78 1007.60 1007.37 1007.17 1007.53 1007.56 1006.98 1006.20 1005.46 1004.61 1003.47 1001.74 1000.78 1000.08 999.12 997.68 997.04 996.45 995.88 995.49 995.27 995.05 994.93 994.82 994.74 994.70 994.67 994.65 994.63 994.77 995.03 995.21 995.44 995.83 996.40 996.94 997.51 998.15 998.91 999.70
1009.76 1009.67 1009.46 1009.15 1008.39 1007.86 1007.83 1008.14 1007.17 1006.96 1007.29 1007.75 1008.21 1008.77 1008.76 1008.81 1008.49 1008.40 1008.43 1008.38 1008.21 1007.52 1006.25 1005.04 1003.72 1002.23 1000.58 999.37 998.42 997.93 997.69 997.61 997.20 996.66 996.43 996.34 996.22 996.08 996.01 996.01 995.99 996.04 996.07 996.27 996.61 996.81 996.98 997.49 998.40 999.26 1000.05 1000.76 1001.67 1002.49
Wind_Speed
25 23 23 22 22 23 23 23 23 22 21 19 18 19 18 16 18 12 8 11 8 8 16 21 20 20 14 11 13 14 15 11 11 13 12 13 13 14 14 18 20 21 9 8 20 21 23 8 20 20 5 10 17 18
25 24 23 23 22 23 24 24 24 22 21 21 20 19 20 19 18 17 10 11 10 10 9 13 15 16 20 22 18 17 21 24 6 6 6 6 10 10 16 15 15 15 12 13 3 6 13 19 10 12 12 9 15 19
24 24 23 23 23 23 24 24 23 22 22 22 21 20 20 21 22 19 12 11 6 5 8 16 19 21 20 19 19 16 15 24 23 18 13 14 19 13 15 17 22 24 24 18 19 17 16 15 10 17 21 7 17 20
24 23 23 23 24 24 24 24 23 23 23 23 22 21 22 23 23 22 11 9 10 6 10 17 17 22 22 11 17 21 24 21 20 13 12 12 15 16 16 19 21 17 20 24 25 30 26 27 22 13 16 20 20 22
22 22 22 23 24 24 24 23 23 24 23 22 21 21 20 19 19 12 7 7 11 11 8 9 14 20 21 23 28 25 21 18 13 13 12 16 16 16 16 18 19 18 22 19 24 23 20 25 25 24 26 25 24 23
22 22 23 21 20 18 20 21 21 18 19 21 22 21 21 22 20 9 6 7 8 8 6 14 12 16 19 24 23 23 18 16 14 13 13 15 26 19 16 21 26 26 27 28 31 27 28 32 31 30 28 26 26 25
22 20 17 18 19 18 17 17 19 20 22 23 24 24 22 21 12 10 5 2 4 2 4 6 9 9 10 16 14 12 16 12 14 15 18 18 18 17 17 24 27 28 30 31 32 31 33 33 29 28 27 24 23 23
15 15 16 18 19 20 20 21 22 23 22 22 22 21 22 22 20 15 14 22 15 7 7 8 14 18 15 11 12 11 12 12 13 12 14 15 16 17 23 35 28 31 32 34 33 31 33 31 33 31 28 26 27 26
16 17 18 21 20 21 22 22 22 23 21 21 21 21 15 13 11 13 23 22 10 10 6 8 15 15 10 16 14 11 11 14 12 17 16 12 16 18 24 27 32 33 32 33 33 33 36 36 35 34 33 31 30 27
20 21 19 20 21 21 21 20 21 20 19 21 12 6 5 4 6 2 5 5 6 7 7 12 14 17 14 14 13 11 6 11 14 13 14 18 20 31 32 32 29 31 33 34 35 32 33 35 33 33 32 28 27 25
18 20 21 19 20 21 21 20 19 19 16 5 5 6 6 2 3 5 6 7 7 6 7 12 17 17 14 15 14 12 11 10 17 15 19 17 24 26 24 24 24 26 30 33 32 38 37 36 29 30 28 28 26 27
20 21 21 21 20 19 20 18 16 10 5 6 9 8 4 4 6 7 6 6 8 10 9 9 11 10 8 5 8 5 12 8 11 9 14 20 22 24 22 24 23 23 27 31 33 37 35 36 34 31 27 24 24 23
21 20 20 19 18 18 18 19 16 13 13 7 5 6 6 7 11 8 10 11 8 9 9 9 11 10 6 7 6 5 8 9 10 13 20 20 25 23 24 13 18 18 21 28 34 34 40 36 34 31 29 27 27 24
19 19 18 16 17 16 17 15 13 11 5 5 6 8 8 7 6 11 13 12 10 10 10 9 7 5 4 6 5 7 6 8 18 21 25 19 20 17 16 16 20 29 34 28 29 34 31 34 26 29 27 22 21 23
18 17 17 17 18 16 16 15 14 5 4 5 6 8 9 10 13 11 10 10 10 10 8 7 8 8 9 6 5 5 6 10 8 14 13 10 16 18 23 26 31 30 26 28 28 26 20 26 22 24 23 23 25 21
16 16 15 17 16 14 14 13 8 3 4 5 7 11 13 15 11 11 11 12 10 8 10 7 6 7 10 6 9 11 17 22 17 16 16 18 20 25 28 32 27 30 30 26 27 27 20 23 23 23 23 23 23 23
16 12 12 13 14 13 15 9 4 6 6 7 8 11 12 12 10 12 10 10 8 10 9 8 8 10 6 10 19 16 20 18 17 16 17 24 27 29 32 30 29 29 30 26 28 23 17 20 22 21 23 23 23 24
13 12 16 12 11 10 6 3 4 5 8 8 12 11 13 13 13 13 13 11 10 10 12 15 13 19 16 23 18 16 16 17 18 19 21 22 26 25 26 30 29 27 31 27 20 19 8 16 19 16 21 20 19 20
13 12 14 12 9 3 4 4 5 6 8 11 11 11 13 12 12 14 12 11 11 11 9 12 15 14 15 15 16 16 15 15 16 18 21 27 24 25 25 27 28 26 26 30 9 9 6 12 12 12 13 14 13 13
25 20 16 13 7 4 5 4 3 6 8 11 11 11 11 11 12 12 13 13 13 12 15 15 16 15 15 15 15 16 16 15 17 21 22 20 17 22 22 20 18 25 22 20 5 6 6 9 10 12 12 13 11 12
17 11 13 9 4 6 4 4 5 6 8 9 10 11 6 9 11 13 13 11 12 13 13 13 14 13 18 17 16 16 17 17 16 16 21 23 23 18 20 19 17 16 16 15 8 3 8 5 8 7 5 6 5 8
3 6 4 5 4 4 5 7 6 5 7 12 13 12 10 9 9 9 8 9 8 11 11 13 14 14 15 18 16 18 19 21 22 20 25 22 19 16 14 13 13 11 13 13 9 5 1 4 5 4 6 7 8 8
8 5 3 5 5 5 6 5 7 7 6 6 8 10 8 9 9 10 9 9 10 9 9 10 13 15 16 19 22 22 19 22 17 16 15 16 15 15 13 12 7 9 11 11 8 5 3 8 5 4 5 8 8 8
2 3 4 5 7 5 2 4 4 5 5 9 11 16 13 11 6 7 10 9 4 4 3 8 9 12 14 19 15 15 13 11 13 14 14 14 11 10 9 7 5 6 7 8 7 5 3 4 6 4 5 9 10 10
4 5 5 6 4 4 5 5 6 7 9 11 15 12 7 4 5 11 13 2 3 5 7 10 11 13 15 16 14 14 15 10 11 14 13 12 10 9 9 7 5 4 5 6 3 2 2 4 5 6 6 8 10 11
6 6 6 4 3 5 4 3 4 6 9 7 7 6 6 10 9 6 2 4 6 8 10 12 14 15 15 14 15 14 12 8 10 13 13 8 7 7 9 8 6 2 3 3 1 1 4 5 8 10 8 10 14 15
5 5 5 3 5 5 5 5 6 6 6 5 7 7 5 5 5 3 4 7 7 10 12 13 13 13 14 15 14 13 12 11 13 12 12 8 7 5 6 6 3 2 3 2 3 3 7 9 10 11 11 9 10 14
5 3 4 4 3 5 6 6 4 4 4 4 7 7 4 5 9 7 5 8 10 12 12 11 11 12 13 14 14 14 12 11 11 10 8 4 4 4 4 3 4 6 5 5 6 6 7 10 12 12 12 11 11 12
4 2 3 4 5 4 4 4 5 4 5 8 10 12 8 6 11 6 7 9 10 10 11 13 12 12 13 12 12 7 7 7 7 8 5 4 4 6 5 5 5 6 6 9 13 11 13 11 13 14 16 13 12 13
3 1 4 2 3 5 3 2 6 8 8 3 3 7 9 8 6 7 6 10 11 11 12 12 12 11 12 11 12 12 5 6 3 2 1 3 4 4 5 6 6 6 8 10 12 14 18 15 16 14 15 14 13 15
1 3 4 5 5 8 6 5 7 4 3 2 2 6 8 6 4 1 6 9 10 11 13 14 13 11 11 11 12 11 7 8 8 7 5 5 5 5 6 6 6 6 7 9 10 11 12 13 14 17 19 22 22 21
2 3 2 4 6 4 4 4 6 4 4 2 1 4 6 4 5 4 6 9 12 14 17 15 15 17 16 10 11 5 7 6 7 6 9 7 7 7 7 7 7 8 11 13 13 15 20 20 18 20 21 25 24 25
3 3 4 3 3 4 4 5 4 3 1 2 3 4 5 5 5 4 7 7 11 14 15 15 15 14 17 15 7 7 9 9 13 14 15 15 14 12 9 8 10 12 16 15 14 16 22 28 23 25 26 25 25 25
Wind_Direction
286 288 288 287 286 287 288 287 289 291 289 289 286 285 283 275 268 262 262 244 235 253 261 266 258 259 264 254 269 290 292 265 253 257 265 265 257 259 268 262 266 279 286 233 234 234 246 294 254 270 32 341 357 354
287 286 284 284 283 285 285 285 286 285 283 284 282 280 282 277 271 264 262 255 239 241 262 284 265 251 253 274 283 281 270 265 267 265 250 272 271 287 282 273 278 271 265 274 213 293 259 4 341 348 343 3 357 349
284 283 283 283 283 283 282 285 284 281 279 279 280 278 279 278 277 268 261 260 252 240 263 251 250 251 244 244 245 269 263 260 259 256 264 261 259 267 266 264 272 261 271 268 281 265 259 304 283 305 306 339 345 341
284 283 283 284 283 283 282 282 281 280 278 277 277 272 279 281 279 271 259 253 245 263 256 252 247 234 247 249 273 253 250 258 267 262 258 252 252 248 256 265 261 271 287 279 281 274 281 281 285 300 313 313 323 325
284 283 283 284 284 286 285 285 279 278 276 276 273 274 280 286 292 289 278 256 250 232 260 263 274 274 265 266 266 260 252 248 247 248 246 247 250 254 256 258 254 251 257 258 264 272 286 287 295 298 298 303 303 306
283 283 284 288 291 289 287 295 293 289 289 287 282 277 276 272 277 268 263 211 216 219 258 256 247 255 281 275 264 243 234 236 244 245 247 247 251 258 256 256 259 259 260 260 267 280 279 280 283 283 285 289 291 291
286 291 288 286 289 287 284 294 293 290 289 289 286 285 281 274 264 245 261 26 6 327 293 280 262 246 301 282 241 255 247 249 254 253 248 250 250 250 253 260 260 257 260 263 268 274 268 267 272 276 275 277 280 287
292 293 291 290 290 290 288 291 295 296 294 290 287 282 277 272 271 258 249 252 244 243 227 250 267 265 235 245 249 241 248 252 243 250 250 245 247 244 252 245 256 259 262 263 261 261 267 272 270 269 272 277 276 277
291 290 290 289 297 296 288 286 289 289 286 287 286 289 284 259 251 253 252 250 230 232 250 245 254 262 253 252 246 255 256 261 255 249 243 240 240 239 251 262 260 259 259 262 262 255 254 256 260 262 263 263 265 268
284 289 296 289 293 296 293 290 288 291 284 280 288 263 251 209 279 321 217 223 208 211 232 248 257 258 259 259 252 257 253 258 258 257 244 240 254 258 258 260 263 265 264 266 268 261 250 247 253 253 252 254 258 258
288 284 290 292 286 293 292 292 287 291 294 272 238 236 280 88 246 227 231 219 204 224 220 237 240 252 240 252 262 254 258 255 258 257 252 256 262 255 262 263 268 277 284 279 263 250 249 251 249 242 246 249 251 253
298 291 285 288 284 283 286 289 281 281 262 273 296 290 259 233 228 230 221 216 230 238 248 249 250 264 276 256 229 239 238 240 257 262 252 254 262 275 278 271 272 282 283 274 269 272 258 240 238 240 240 242 241 241
285 287 283 285 291 289 294 293 294 287 281 270 238 237 221 206 232 232 223 234 249 250 261 265 266 263 257 217 237 242 239 247 262 264 264 262 270 272 272 297 281 285 288 279 268 252 253 248 231 231 231 230 232 241
283 289 290 289 290 292 288 283 276 274 271 242 238 235 230 221 233 234 246 261 265 269 269 282 284 254 246 233 230 245 252 267 254 257 260 269 282 301 289 289 312 310 293 281 288 282 233 242 225 221 223 225 221 229
286 287 289 284 286 277 278 278 270 263 245 255 239 244 240 254 268 269 273 260 262 282 269 271 271 258 255 247 239 248 234 237 245 249 261 328 327 322 317 317 307 295 303 302 299 294 248 224 213 216 211 213 220 218
288 289 283 289 283 281 277 279 272 188 236 237 240 263 275 285 279 268 260 258 268 274 278 260 251 262 254 241 235 245 253 259 276 297 311 307 311 318 314 304 302 307 306 303 299 289 255 205 205 207 210 204 211 216
276 273 285 285 286 283 277 273 240 233 232 223 239 245 255 269 279 279 271 263 256 261 251 267 242 238 257 253 253 251 259 275 280 287 301 304 310 306 296 305 307 305 304 309 301 285 251 195 194 198 208 204 201 209
274 269 267 276 279 296 280 214 244 244 251 251 267 273 272 266 269 274 274 276 272 262 265 253 257 258 262 271 272 281 287 288 285 288 287 290 293 298 304 302 306 308 304 307 301 282 214 182 188 194 202 204 198 202
275 284 284 277 268 246 260 211 229 255 251 264 270 275 270 261 263 264 260 258 251 260 262 260 253 253 260 265 274 273 275 283 289 295 292 294 297 298 301 304 302 301 305 301 299 267 192 185 185 188 193 198 194 187
279 266 265 259 254 225 241 233 220 267 271 279 276 270 262 262 260 257 253 251 257 266 253 245 248 255 263 269 271 276 282 291 293 293 293 295 298 302 295 297 300 304 300 312 4 294 224 176 182 190 191 192 183 197
272 228 241 239 212 221 271 267 243 256 285 282 276 277 265 246 244 243 245 238 237 232 241 243 246 247 255 263 266 270 278 288 292 299 297 298 301 303 299 299 298 300 308 319 333 22 328 185 164 159 118 129 134 157
172 165 166 185 228 222 248 241 254 278 276 272 279 280 285 283 282 278 256 235 234 239 238 247 255 264 269 278 287 293 294 292 289 282 279 279 281 285 290 291 299 307 309 310 335 337 48 16 77 100 141 134 139 140
147 156 208 194 226 235 256 259 250 252 252 280 294 295 290 295 297 295 276 265 265 269 284 299 309 315 302 295 287 281 279 277 278 280 282 284 271 272 275 281 288 302 307 315 338 326 42 101 80 104 115 121 126 128
141 197 215 217 220 247 255 256 243 261 270 287 298 298 298 296 288 272 269 268 287 7 333 304 297 298 298 295 287 285 290 294 286 281 275 288 280 276 280 288 293 287 293 305 310 322 94 105 110 108 107 122 130 135
191 205 237 223 241 228 231 253 270 281 277 285 303 301 286 303 276 287 276 271 65 356 333 329 312 300 299 294 291 287 289 286 280 284 291 288 280 287 281 286 287 292 299 299 318 354 126 100 105 108 118 131 137 133
222 182 220 232 222 222 254 261 233 252 293 313 280 285 312 306 283 272 34 15 352 343 331 321 314 304 292 289 295 290 295 291 289 282 287 289 288 286 291 298 302 285 310 300 53 122 134 114 117 112 111 115 122 122
231 220 208 229 279 283 288 285 304 302 301 267 287 313 310 284 274 11 345 30 347 333 320 310 303 292 289 291 287 281 282 280 271 273 285 296 298 285 273 278 299 333 335 29 68 112 118 111 105 108 107 101 116 120
242 261 224 227 262 272 268 289 284 258 260 309 306 305 273 280 301 347 7 2 345 327 316 305 298 296 295 293 285 280 277 268 271 271 263 260 304 338 0 26 54 58 54 58 76 88 102 108 106 103 99 97 96 99
241 196 267 265 268 252 239 239 260 287 318 314 300 301 303 330 335 340 353 350 344 324 317 322 319 317 304 299 302 279 255 268 283 302 354 11 354 15 11 28 41 56 73 75 69 79 87 94 102 102 102 100 102 106
206 269 273 210 231 248 271 282 289 317 316 328 312 296 297 315 325 331 354 347 338 330 324 314 314 314 313 322 324 330 9 356 359 50 359 41 16 358 32 49 54 61 76 88 94 94 93 94 98 99 100 103 100 100
290 240 247 268 280 287 329 326 289 269 247 260 276 314 322 321 306 70 17 352 332 327 326 330 326 324 318 325 332 326 349 10 16 35 48 54 45 39 44 50 50 58 73 86 92 95 99 98 97 100 102 102 104 103
232 253 306 274 295 343 308 308 302 270 189 253 356 349 331 314 309 2 13 346 339 339 337 332 326 321 318 310 300 340 16 12 10 27 46 52 49 48 51 52 61 75 80 82 87 93 95 95 95 93 91 92 92 92
237 214 252 270 269 310 26 325 274 315 183 12 19 1 344 330 323 342 353 349 345 333 328 321 316 308 301 298 353 22 41 40 43 56 60 58 55 55 59 62 69 76 84 84 86 92 91 92 89 89 88 89 90 90